This demonstration page uses our WeatherBlox Daily Observations layout. Learn more.

Left ArrowRight Arrow

Hourly Observations for March 3, 2020

Temp ( °F °C ) Dew Point ( °F °C ) Humidity (%) Winds ( mph kmh ) Pressure ( in mb ) Visibility ( mi km ) Precip ( " mm )
12:51 am 00:51 Clear 42 5.6 34 1.1 73 73 SW 5 7 29.71 1006 10 16 0.00 0.00
1:51 am 01:51 Clear 42 5.6 33 0.6 71 71 E 7 11 29.71 1006 10 16 0.00 0.00
2:51 am 02:51 Mostly Cloudy 46 7.8 35 1.7 66 66 NE 9 15 29.69 1006 10 16 0.00 0.00
3:51 am 03:51 Cloudy 45 7.2 35 1.7 68 68 N 3 6 29.70 1006 10 16 0.00 0.00
4:51 am 04:51 Mostly Cloudy 45 7.2 35 1.7 68 68 S 7 11 29.72 1007 10 16 0.00 0.00
5:51 am 05:51 Mostly Cloudy 46 7.8 35 1.7 66 66 WSW 6 9 29.75 1007 10 16 0.00 0.00
6:51 am 06:51 Sunny 45 7.2 36 2.2 71 71 Calm 29.76 1008 10 16 0.00 0.00
7:51 am 07:51 Partly Cloudy 46 7.8 36 2.2 68 68 Calm 29.77 1008 10 16 0.00 0.00
8:51 am 08:51 Sunny 53 11.7 38 3.3 57 57 NE 3 6 29.77 1008 10 16 0.00 0.00
9:51 am 09:51 Partly Cloudy 55 12.8 39 3.9 55 55 W 12 19 29.78 1008 10 16 0.00 0.00
10:51 am 10:51 Mostly Cloudy 59 15 38 3.3 46 46 NW 7 11 29.77 1008 10 16 0.00 0.00
11:51 am 11:51 Partly Cloudy 62 16.7 37 2.8 40 40 VRB 3 6 29.75 1007 10 16 0.00 0.00
12:51 pm 12:51 Sunny 64 17.8 34 1.1 33 33 Calm 29.72 1007 10 16 0.00 0.00
1:51 pm 13:51 Sunny 65 18.3 34 1.1 32 32 VRB 3 6 29.70 1006 10 16 0.00 0.00
2:51 pm 14:51 Sunny 67 19.4 35 1.7 31 31 NW 9 15 29.66 1005 10 16 0.00 0.00
3:51 pm 15:51 Mostly Sunny 67 19.4 33 0.6 28 28 WNW 9 15 29.67 1005 10 16 0.00 0.00
4:51 pm 16:51 Mostly Cloudy 67 19.4 32 0 27 27 W 16 26 29.67 1005 10 16 0.00 0.00
5:14 pm 17:14 Cloudy with Nearby Thunderstorms 66 18.9 31 -0.6 27 27 WNW 16 26 29.63 1003 10 16 0.00 0.00
5:30 pm 17:30 Cloudy 66 19 30 -1 26 26 WNW 18 30 29.63 1003 10 16 0.00 0.00
5:51 pm 17:51 Cloudy 66 18.9 29 -1.7 25 25 WNW 15 24 29.72 1006 10 16 0.00 0.00
6:26 pm 18:26 Mostly Cloudy 61 16.1 41 5 48 48 SW 16 26 29.71 1006 10 16 0.00 0.00
6:40 pm 18:40 Partly Cloudy 55 12.8 43 6.1 64 64 SSW 16 26 29.77 1008 10 16 0.00 0.00
6:51 pm 18:51 Mostly Cloudy 56 13.3 42 5.6 60 60 SSW 10 17 29.78 1008 10 16 0.00 0.00
7:51 pm 19:51 Cloudy 55 12.8 44 6.7 67 67 E 13 20 29.84 1010 10 16 0.00 0.00
8:51 pm 20:51 Cloudy 52 11.1 46 7.8 80 80 E 7 11 29.85 1011 10 16 0.00 0.00
9:51 pm 21:51 Clear 50 10 45 7.2 83 83 ENE 3 6 29.87 1012 10 16 0.00 0.00
10:51 pm 22:51 Clear 49 9.4 44 6.7 83 83 ENE 8 13 29.88 1012 10 16 0.00 0.00

Powered by AerisWeather